COSMOS 1275 DEB, 42126

Orbit data source: Space-Track

COSMOS 1275 DEB, 42126 is space debris in LEO originally from a launch on Thu, 04 Jun 1981 UTC launched from the Plesetsk Missile And Space Complex (PKMTR). Debris objects in space refer to the collection of defunct objects orbiting the Earth. Examples of debris include non-operational satellites, rocket bodies, and fragments generated from explosions, collisions, or faulty payload assembly.

Loading next visibility...
Identifier
42126, 1981-053QN
Orbit
LEO
Country
Flag of CISCIS
Related business
Manufacturer
Unknown
Mission
Spacecraft
Bus & Motor
Unknown
Mass
Unknown
Launch date (UTC)
1981-06-04 (45 years ago)
Launch vehicle
Unknown
Launch site
Plesetsk Missile And Space Complex (PKMTR)
Object type
Payload
Rocket body
Debris
Shape & HBR
Unknown shape, 0.1 m
Radar Cross Section
Small (<0.1 m²)

Expand to show TLE details & history
Last TLE update: 4 days ago

TLE from 4 days ago
0 COSMOS 1275 DEB
1 42126U 81053QN  25348.59174512  .00001054  00000-0  13249-2 0  9999
2 42126  83.1652 201.0630 0161155 301.3520  86.5073 13.57986503596698
Epoch: 2025-12-14T14:12Z
TLE epoch observation values (Epoch: 2025-12-14T14:12:06.778Z)
Latitude
29.51982°
Longitude
-91.59629°
Altitude
1,041.316 km
Speed
7.336 km/s
True Right ascension
13h 39m 44s
True Declination
29° 22' 42"
Sunlit
Object was in daylight at epoch
Visualization orbit readout
Latitude
Unknown
Longitude
Unknown
Altitude
Unknown
Speed
Unknown
Apparent Right ascension
Unknown
Apparent Declination
Unknown
Sunlit
N/A
Visualization observer readout
Local Sidereal Time
21:37:12
Azimuth
Unknown
Elevation
Unknown
Doppler factor
Unknown
Orbital elements
Apogee altitude
1,159.732 km
Perigee altitude
920.632 km
Semi-major axis
7,418.319 km
Eccentricity
0.01612
Inclination
83.1652°
RAAN
201.063°
Arg. of periapsis
301.352°
True anomaly
88.35252°
Mean anomaly
86.5073°
Eccentric anomaly
87.42972°
Mean motion
3.39692 °/min
Orbital period
105.98 mins
BSTAR
0.0013249
Loading maneuver chart data...
Computing Atmospheric mass density...
Loading historical data...
Loading historical data...
Loading historical data...
Loading historical data...
Loading historical data...
Loading historical data...
Loading historical data...

Documentation

Showing up to 5 results
|